Location: Champs
(48.8539°N, 2.6040°E)
Time: 05:20:06
(UTC+00:00)

Cosmos 1624 Rocket - Pass Details

Date: 26 October 2021
Orbit: 757 x 784 km, 74.0° (Epoch: 04 December)

Event Time Altitude Azimuth Distance (km) Brightness Sun altitude
Rises 05:23:24 0° 334° (NNW) 3,284 6.9 -11.1°
Reaches altitude 10° 05:25:49 10° 330° (NNW) 2,349 6.2 -10.7°
Maximum altitude 05:31:03 58° 253° (WSW) 905 4.1 -9.8°
Drops below altitude 10° 05:36:14 10° 175° (S) 2,320 6.7 -9.0°
Sets 05:38:37 0° 171° (S) 3,239 7.5 -8.6°
